Home > Weather > Eau Claire > Past weeks

Flag for U.S.A. Weather for the Past 2 Weeks in Eau Claire, Wisconsin, U.S.A.

Now
23 °F

Overcast.


Feels Like: 12 °F
Forecast: 23 / 31 °F
Wind: 12 mph from Southwest

Location: Eau Claire County Airport

Current Time: Feb 6, 2016 at 2:04:47 AM

Latest Report: Feb 6, 2016 at 12:56 AM


Visibility: 10 mi

Pressure: 30.20 "Hg

Humidity: 81%

Dew point: 18 °F

Location of Eau ClaireLocation

Historic Weather in Eau Claire — Graph

°F

Eau Claire Temperature Yesterday

Maximum temperature yesterday: 24 °F (at 2:56 PM)
Minimum temperature yesterday: 2 °F (at 7:56 AM)
Average temperature yesterday: 15 °F

High & Low Weather Summary for the Past Weeks

 TemperatureHumidityPressure
High44 °F (Jan 30, 1:56 PM)96% (Feb 1, 5:56 AM)30.47 "Hg (Feb 1, 5:56 AM)
Low0 °F (Feb 4, 4:56 AM)49% (Jan 30, 1:56 PM)29.48 "Hg (Jan 30, 1:56 AM)
Average24 °F78%29.95 "Hg
* Reported Jan 22 12:56 AM — Feb 6 12:56 AM, Eau Claire, Weather by CustomWeather, © 2016

Note: Actual official high and low records may vary slightly from our data, if they occured in-between our weather recording intervals... More about our weather records

Advertising

Eau Claire Weather History for the Previous 24 Hours

 ConditionsComfort  
Time TempWeatherWind HumidityBarometerVisibility
12:56 AM
Sat, Feb 6
23 °FOvercast.12 mph81%30.20 "Hg10 mi
11:56 PM
Fri, Feb 5
23 °FOvercast.12 mph74%30.22 "Hg10 mi
10:56 PM23 °FOvercast.9 mph72%30.24 "Hg9 mi
9:56 PM23 °FOvercast.8 mph68%30.25 "Hg10 mi
8:56 PM22 °FLight snow. Overcast.N/A72%30.27 "Hg9 mi
7:56 PM23 °FOvercast.8 mph65%30.27 "Hg10 mi
6:56 PM22 °FMostly cloudy.7 mph66%30.28 "Hg10 mi
5:56 PM21 °FPassing clouds.8 mph65%30.29 "Hg10 mi
4:56 PM22 °FBroken clouds.7 mph62%30.30 "Hg10 mi
3:56 PM23 °FOvercast.8 mph63%30.31 "Hg10 mi
2:56 PM24 °FPartly sunny.7 mph60%30.33 "Hg10 mi
1:56 PM23 °FOvercast.9 mph65%30.34 "Hg10 mi
12:56 PM21 °FScattered clouds.7 mph68%30.36 "Hg10 mi
11:56 AM17 °FSunny.No wind80%30.38 "Hg10 mi
10:56 AM15 °FSunny.No wind91%30.40 "Hg9 mi
9:56 AM11 °FSunny.No wind96%30.40 "Hg7 mi
8:56 AM7 °FIce fog.3 mph91%30.40 "Hg6 mi
7:56 AM2 °FIce fog.No wind83%30.40 "Hg6 mi
6:56 AM3 °FClear.3 mph79%30.38 "Hg7 mi
5:56 AM6 °FClear.5 mph83%30.37 "Hg7 mi
4:56 AM6 °FIce fog.No wind83%30.37 "Hg6 mi
3:56 AM6 °FIce fog.3 mph83%30.34 "Hg6 mi
2:56 AM3 °FIce fog.5 mph87%30.34 "Hg5 mi
Weather by CustomWeather, © 2016

See weather overviewHow to use our weather pages